Location: Santa Cristina
(46.5667°N, 11.7167°E)
Time: 06:27:21
(UTC+00:00)

Cosmos 2341 Rocket - Pass Details

Date: 21 April 2021
Orbit: 969 x 1004 km, 82.9° (Epoch: 05 May)

Event Time Altitude Azimuth Distance (km) Brightness Sun altitude
Rises 00:10:03 0° 351° (N) 3,715 8.0 -30.1°
Reaches altitude 10° 00:12:34 10° 351° (N) 2,767 7.1 -30.0°
Maximum altitude 00:18:57 89° 268° (W) 1,006 3.9 -29.7°
Enters shadow 00:19:01 88° 208° (SSW) 1,006 3.9 -29.7°
